Location: Gleizolles
(44.4833°N, 6.7667°E)
Time: 00:12:50
(UTC+00:00)

ATLAS 5 CENTAUR R/B - Pass Details

Date: 09 April 2020
Orbit: 543 x 1116 km, 63.4° (Epoch: 01 May)

Event Time Altitude Azimuth Distance (km) Brightness Sun altitude
Rises 19:58:22 0° 239° (WSW) 2,734 5.2 -18.5°
Reaches altitude 10° 20:00:36 10° 248° (WSW) 1,880 4.5 -18.9°
Maximum altitude 20:04:31 37° 317° (NW) 959 3.1 -19.5°
Drops below altitude 10° 20:08:55 10° 26° (NNE) 2,117 4.4 -20.1°
Sets 20:11:35 0° 34° (NE) 3,133 5.2 -20.5°
